Location: Gwatt
(46.7204°N, 7.6223°E)
Time: 11:20:50
(UTC+00:00)

MOS 1 - Pass Details

Date: 18 September 2020
Orbit: 878 x 891 km, 99.1° (Epoch: 24 October)

Event Time Altitude Azimuth Distance (km) Brightness Sun altitude
Exits shadow 19:23:13 13° 168° (SSE) 2,309 6.1 -18.9°
Maximum altitude 19:28:17 80° 255° (WSW) 909 4.4 -19.7°
Drops below altitude 10° 19:34:02 10° 343° (NNW) 2,571 7.3 -20.6°
Sets 19:36:27 0° 345° (NNW) 3,515 8.0 -20.9°
